GW7124 Weather Reports


time (UTC)temp
C
wind
direction
speed
KPH
gust
KPH
rain 1hr
cm
rain 24hr
cm
rain mn
cm
humidity
%
barometer
mb
20260506125019 11 133 6.4 14.5 0.00 0.00 0.00 70 1017.5
20260506124519 11 139 6.4 12.9 0.00 0.00 0.00 70 1017.5
20260506124039 11 133 6.4 9.7 0.00 0.00 0.00 70 1017.4
20260506123519 11 134 6.4 14.5 0.00 0.00 0.00 70 1017.4
20260506123019 11 136 6.4 19.3 0.00 0.00 0.00 70 1017.4
20260506122519 11 133 6.4 12.9 0.00 0.00 0.00 71 1017.4
20260506122017 11 131 6.4 14.5 0.00 0.00 0.00 71 1017.4
20260506121517 11 141 4.8 11.3 0.00 0.00 0.00 71 1017.4
20260506121017 11 138 4.8 11.3 0.00 0.00 0.00 71 1017.4
20260506120516 11 138 6.4 12.9 0.00 0.00 0.00 71 1017.4
20260506120020 11 135 4.8 11.3 0.00 0.00 0.00 72 1017.4
20260506115519 11 141 4.8 9.7 0.00 0.00 0.00 71 1017.4
20260506115020 11 141 4.8 9.7 0.00 0.00 0.00 71 1017.3
20260506114540 11 140 4.8 9.7 0.00 0.00 0.00 71 1017.3
20260506114041 11 140 6.4 11.3 0.00 0.00 0.00 72 1017.1
20260506113517 11 136 6.4 12.9 0.00 0.00 0.00 72 1017.0
20260506113017 11 134 6.4 16.1 0.00 0.00 0.00 72 1017.0
20260506112517 11 134 6.4 14.5 0.00 0.00 0.00 72 1017.0
20260506112037 11 136 6.4 12.9 0.00 0.00 0.00 72 1017.0
20260506111537 11 136 6.4 12.9 0.00 0.00 0.00 73 1017.0
20260506111017 11 138 6.4 11.3 0.00 0.00 0.00 73 1017.0
20260506110517 11 139 4.8 9.7 0.00 0.00 0.00 74 1017.0
20260506110018 11 147 4.8 9.7 0.00 0.00 0.00 74 1017.0
20260506105518 11 141 4.8 12.9 0.00 0.00 0.00 73 1017.0
20260506105021 11 144 4.8 8.0 0.00 0.00 0.00 72 1016.9
20260506104518 12 139 4.8 11.3 0.00 0.00 0.00 71 1016.9
20260506104018 12 137 6.4 12.9 0.00 0.00 0.00 70 1016.9
20260506103518 12 135 6.4 11.3 0.00 0.00 0.00 68 1016.9
20260506103018 12 131 6.4 14.5 0.00 0.00 0.00 66 1016.8
20260506102518 12 139 4.8 14.5 0.00 0.00 0.00 64 1016.8
20260506102019 12 133 6.4 12.9 0.00 0.00 0.00 62 1016.8
20260506101518 12 131 6.4 11.3 0.00 0.00 0.00 61 1016.8
20260506101018 12 129 6.4 14.5 0.00 0.00 0.00 60 1016.8
20260506100518 12 131 6.4 11.3 0.00 0.00 0.00 60 1016.8
20260506100018 13 129 6.4 9.7 0.00 0.00 0.00 60 1016.8
20260506095538 13 130 4.8 11.3 0.00 0.00 0.00 60 1016.9
20260506095018 13 131 4.8 9.7 0.00 0.00 0.00 60 1016.9
20260506094519 13 126 4.8 9.7 0.00 0.00 0.00 60 1016.8
20260506094018 13 134 4.8 9.7 0.00 0.00 0.00 62 1016.8
20260506093539 13 133 6.4 11.3 0.00 0.00 0.00 62 1016.8
20260506093019 13 139 4.8 9.7 0.00 0.00 0.00 60 1016.8
20260506092519 13 124 6.4 11.3 0.00 0.00 0.00 59 1016.7
20260506092019 13 128 4.8 8.0 0.00 0.00 0.00 60 1016.7
20260506091519 13 132 4.8 8.0 0.00 0.00 0.00 59 1016.8
20260506091019 13 127 4.8 8.0 0.00 0.00 0.00 59 1016.7
20260506090519 13 124 4.8 9.7 0.00 0.00 0.00 57 1016.7
20260506090039 14 132 4.8 11.3 0.00 0.00 0.00 55 1016.8
20260506085519 14 128 3.2 6.4 0.00 0.00 0.00 53 1016.7
20260506085019 14 122 4.8 8.0 0.00 0.00 0.00 51 1016.8
20260506084519 14 121 4.8 11.3 0.00 0.00 0.00 51 1016.8
20260506084057 14 124 3.2 8.0 0.00 0.00 0.00 51 1016.7
20260506083517 14 121 3.2 8.0 0.00 0.00 0.00 51 1016.8
20260506083017 14 113 3.2 9.7 0.00 0.00 0.00 52 1016.7
20260506082516 14 115 3.2 8.0 0.00 0.00 0.00 51 1016.7
20260506082020 14 120 3.2 8.0 0.00 0.00 0.00 51 1016.8
20260506081600 14 126 3.2 4.8 0.00 0.00 0.00 51 1016.8
20260506081020 14 136 3.2 8.0 0.00 0.00 0.00 50 1016.8
20260506080520 14 131 3.2 8.0 0.00 0.00 0.00 50 1016.7
20260506073518 13 107 1.6 4.8 0.00 0.00 0.00 51 1016.5
20260506073017 13 115 1.6 3.2 0.00 0.00 0.00 51 1016.4
20260506072537 14 133 1.6 3.2 0.00 0.00 0.00 50 1016.3
20260506072017 14 88 1.6 1.6 0.00 0.00 0.00 48 1016.3
20260506071517 15 113 1.6 3.2 0.00 0.00 0.00 47 1016.3
20260506071021 15 88 1.6 3.2 0.00 0.00 0.00 45 1016.2
20260506070519 15 82 1.6 3.2 0.00 0.00 0.00 44 1016.2
20260506062019 16 112 1.6 3.2 0.00 0.00 0.00 40 1015.7
20260506061517 15 79 1.6 3.2 0.00 0.00 0.00 40 1015.6
20260506061017 15 81 1.6 3.2 0.00 0.00 0.00 40 1015.5
20260506060536 15 89 1.6 3.2 0.00 0.00 0.00 41 1015.4
20260506051017 17 272 3.2 8.0 0.00 0.00 0.00 37 1015.1
20260506050517 17 257 3.2 12.9 0.00 0.00 0.00 39 1015.1
20260506045037 17 259 3.2 9.7 0.00 0.00 0.00 39 1015.0
20260506044518 17 134 3.2 8.0 0.00 0.00 0.00 39 1015.0
20260506044021 17 131 1.6 4.8 0.00 0.00 0.00 39 1015.0
20260506043521 17 131 1.6 4.8 0.00 0.00 0.00 42 1015.0
20260506043018 17 117 0.0 3.2 0.00 0.00 0.00 42 1015.0
20260506042520 17 189 0.0 3.2 0.00 0.00 0.00 41 1015.0
20260506042018 17 188 1.6 4.8 0.00 0.00 0.00 42 1014.9
20260506041518 17 178 1.6 4.8 0.00 0.00 0.00 44 1014.9
20260506041018 17 215 3.2 8.0 0.00 0.00 0.00 45 1014.9
20260506040518 17 220 1.6 6.4 0.00 0.00 0.00 47 1014.8
20260506040018 17 214 1.6 6.4 0.00 0.00 0.00 48 1014.8
20260506035518 18 224 3.2 8.0 0.00 0.00 0.00 48 1014.7
20260506035018 18 235 0.0 3.2 0.00 0.00 0.00 50 1014.7
20260506034518 18 139 0.0 3.2 0.00 0.00 0.00 49 1014.5
20260506034018 18 251 1.6 3.2 0.00 0.00 0.00 49 1014.5
20260506033518 18 254 3.2 8.0 0.00 0.00 0.00 49 1014.4
20260506033018 18 249 3.2 6.4 0.00 0.00 0.00 49 1014.4
20260506032538 19 269 3.2 8.0 0.00 0.00 0.00 48 1014.4
20260506032018 19 266 4.8 9.7 0.00 0.00 0.00 48 1014.4
20260506031519 19 267 4.8 9.7 0.00 0.00 0.00 47 1014.3
20260506031019 20 277 4.8 9.7 0.00 0.00 0.00 47 1014.2
20260506030519 20 271 4.8 9.7 0.00 0.00 0.00 46 1014.2
20260506030039 20 275 4.8 9.7 0.00 0.00 0.00 46 1014.2
20260506025519 20 272 4.8 12.9 0.00 0.00 0.00 46 1014.1
20260506025039 20 275 4.8 11.3 0.00 0.00 0.00 45 1014.0
20260506024519 20 292 4.8 11.3 0.00 0.00 0.00 45 1014.0
20260506024019 20 281 4.8 9.7 0.00 0.00 0.00 44 1014.0
20260506023536 20 276 4.8 9.7 0.00 0.00 0.00 44 1013.9
20260506023017 21 272 6.4 11.3 0.00 0.00 0.00 43 1013.9
20260506022557 21 275 8.0 20.9 0.00 0.00 0.00 42 1013.8
20260506022017 20 269 6.4 14.5 0.00 0.00 0.00 42 1013.8
20260506021517 20 273 8.0 19.3 0.00 0.00 0.00 43 1013.8
20260506021019 20 262 4.8 17.7 0.00 0.00 0.00 42 1013.8
20260506020520 20 266 6.4 14.5 0.00 0.00 0.00 42 1013.8
20260506020020 21 262 6.4 12.9 0.00 0.00 0.00 43 1013.8
20260506015540 21 264 8.0 14.5 0.00 0.00 0.00 42 1013.8
20260506015020 21 259 6.4 14.5 0.00 0.00 0.00 42 1013.8
20260506014517 21 263 8.0 16.1 0.00 0.00 0.00 43 1013.7
20260506014017 21 264 9.7 17.7 0.00 0.00 0.00 43 1013.7
20260506013537 21 262 11.3 19.3 0.00 0.00 0.00 43 1013.7
20260506013017 21 262 11.3 20.9 0.00 0.00 0.00 43 1013.6
20260506012537 21 271 8.0 17.7 0.00 0.00 0.00 42 1013.6
20260506012017 21 260 8.0 16.1 0.00 0.00 0.00 42 1013.6
20260506011537 21 268 8.0 16.1 0.00 0.00 0.00 43 1013.6
20260506011018 21 262 9.7 22.5 0.00 0.00 0.00 42 1013.6
20260506010518 22 272 9.7 14.5 0.00 0.00 0.00 41 1013.5
20260506010020 22 270 6.4 17.7 0.00 0.00 0.00 40 1013.5
20260506005517 22 268 6.4 16.1 0.00 0.00 0.00 39 1013.4
20260506005018 22 281 6.4 12.9 0.00 0.00 0.00 40 1013.4
20260506004518 22 270 9.7 20.9 0.00 0.00 0.00 39 1013.3
20260506004018 23 274 8.0 17.7 0.00 0.00 0.00 37 1013.3
20260506003518 23 312 6.4 12.9 0.00 0.00 0.00 35 1013.2
20260506003018 23 3 6.4 16.1 0.00 0.00 0.00 35 1013.1
20260506002518 23 354 4.8 11.3 0.00 0.00 0.00 35 1013.1
20260506002018 23 352 4.8 9.7 0.00 0.00 0.00 35 1013.1
20260506001518 22 343 3.2 9.7 0.00 0.00 0.00 35 1013.0
20260506001059 22 307 4.8 14.5 0.00 0.00 0.00 35 1013.0
20260506000519 22 321 4.8 17.7 0.00 0.00 0.00 35 1013.0
20260506000039 23 284 4.8 14.5 0.00 0.00 0.00 34 1013.0
20260505235539 23 325 4.8 11.3 0.00 0.00 0.00 34 1013.0
20260505235018 24 328 6.4 14.5 0.00 0.00 0.00 33 1012.9
20260505234536 25 316 6.4 19.3 0.00 0.00 0.00 32 1012.9
20260505234019 25 352 4.8 14.5 0.00 0.00 0.00 32 1012.9
20260505233519 25 340 4.8 12.9 0.00 0.00 0.00 32 1012.9
20260505233039 25 325 4.8 11.3 0.00 0.00 0.00 32 1012.9
20260505232519 25 14 4.8 9.7 0.00 0.00 0.00 32 1012.9
20260505232019 24 348 4.8 16.1 0.00 0.00 0.00 32 1012.9
20260505231619 24 328 6.4 16.1 0.00 0.00 0.00 32 1012.9
20260505231019 24 2 4.8 12.9 0.00 0.00 0.00 32 1013.0
20260505230519 25 326 4.8 14.5 0.00 0.00 0.00 32 1013.0
20260505230019 25 5 6.4 16.1 0.00 0.00 0.00 32 1012.9
20260505225537 25 11 6.4 14.5 0.00 0.00 0.00 32 1013.0
20260505225017 25 359 4.8 11.3 0.00 0.00 0.00 32 1013.0
20260505224516 25 358 4.8 17.7 0.00 0.00 0.00 32 1013.1
20260505224016 24 353 6.4 12.9 0.00 0.00 0.00 32 1013.0
20260505223517 24 346 8.0 17.7 0.00 0.00 0.00 33 1013.0
20260505223017 24 2 4.8 12.9 0.00 0.00 0.00 32 1013.1
20260505222537 24 14 4.8 12.9 0.00 0.00 0.00 32 1013.2
20260505222020 25 356 6.4 16.1 0.00 0.00 0.00 32 1013.1
20260505221520 25 359 4.8 17.7 0.00 0.00 0.00 32 1013.1
20260505221020 24 328 4.8 14.5 0.00 0.00 0.00 32 1013.1
20260505220521 24 327 4.8 9.7 0.00 0.00 0.00 33 1013.2
20260505220020 24 357 6.4 16.1 0.00 0.00 0.00 32 1013.2
20260505215517 24 310 3.2 8.0 0.00 0.00 0.00 32 1013.2
20260505215018 24 11 4.8 14.5 0.00 0.00 0.00 32 1013.3
20260505214518 24 315 4.8 12.9 0.00 0.00 0.00 32 1013.3
20260505214018 24 21 4.8 14.5 0.00 0.00 0.00 32 1013.3
20260505213518 24 355 6.4 12.9 0.00 0.00 0.00 32 1013.3
20260505213018 23 345 3.2 9.7 0.00 0.00 0.00 33 1013.4
20260505212518 23 315 3.2 11.3 0.00 0.00 0.00 33 1013.4
20260505212018 23 339 4.8 14.5 0.00 0.00 0.00 33 1013.5
20260505211518 23 3 6.4 14.5 0.00 0.00 0.00 33 1013.5
20260505211018 23 23 6.4 14.5 0.00 0.00 0.00 33 1013.4
20260505210517 23 348 6.4 12.9 0.00 0.00 0.00 34 1013.4
20260505210018 23 279 8.0 19.3 0.00 0.00 0.00 33 1013.4
20260505205518 23 0 4.8 14.5 0.00 0.00 0.00 34 1013.4
20260505205038 23 12 4.8 12.9 0.00 0.00 0.00 34 1013.4
20260505204518 24 1 4.8 11.3 0.00 0.00 0.00 33 1013.5
20260505204018 23 1 4.8 12.9 0.00 0.00 0.00 34 1013.4
20260505203519 23 350 3.2 8.0 0.00 0.00 0.00 35 1013.4
20260505203019 23 298 6.4 11.3 0.00 0.00 0.00 34 1013.4
20260505202518 23 336 4.8 12.9 0.00 0.00 0.00 34 1013.5
20260505202019 23 35 3.2 11.3 0.00 0.00 0.00 35 1013.5
20260505201519 23 2 6.4 12.9 0.00 0.00 0.00 35 1013.6
20260505201019 23 314 3.2 12.9 0.00 0.00 0.00 36 1013.6
20260505200539 23 356 4.8 12.9 0.00 0.00 0.00 35 1013.7
20260505200019 23 360 4.8 14.5 0.00 0.00 0.00 35 1013.7
20260505195519 22 327 3.2 9.7 0.00 0.00 0.00 37 1013.7
20260505195019 22 346 4.8 12.9 0.00 0.00 0.00 37 1013.7
20260505194519 22 354 4.8 11.3 0.00 0.00 0.00 38 1013.7
20260505194019 22 340 4.8 16.1 0.00 0.00 0.00 38 1013.7
20260505193519 22 340 6.4 17.7 0.00 0.00 0.00 38 1013.7
20260505193019 22 286 4.8 12.9 0.00 0.00 0.00 38 1013.7
20260505192519 22 8 4.8 14.5 0.00 0.00 0.00 39 1013.8
20260505192016 22 6 4.8 14.5 0.00 0.00 0.00 38 1013.8
20260505191516 22 355 4.8 16.1 0.00 0.00 0.00 38 1013.8
20260505191017 22 2 4.8 14.5 0.00 0.00 0.00 39 1013.8
20260505190557 21 316 3.2 11.3 0.00 0.00 0.00 40 1013.8
20260505190117 21 314 6.4 14.5 0.00 0.00 0.00 40 1013.8
20260505185517 21 340 4.8 12.9 0.00 0.00 0.00 40 1013.8
20260505185037 21 300 4.8 9.7 0.00 0.00 0.00 40 1013.9
20260505184517 21 355 3.2 9.7 0.00 0.00 0.00 40 1013.9
20260505184019 21 327 3.2 9.7 0.00 0.00 0.00 40 1013.9
20260505183520 21 350 3.2 12.9 0.00 0.00 0.00 39 1013.9
20260505183020 21 355 3.2 9.7 0.00 0.00 0.00 39 1013.8
20260505182517 21 356 3.2 11.3 0.00 0.00 0.00 39 1013.8
20260505182020 21 291 3.2 12.9 0.00 0.00 0.00 39 1013.8
20260505181517 20 273 4.8 12.9 0.00 0.00 0.00 39 1013.8
20260505181018 20 326 3.2 9.7 0.00 0.00 0.00 39 1013.8
20260505180517 20 107 1.6 6.4 0.00 0.00 0.00 41 1013.8
20260505180017 20 345 4.8 9.7 0.00 0.00 0.00 41 1013.8
20260505175518 20 8 3.2 9.7 0.00 0.00 0.00 41 1013.9
20260505175018 20 294 3.2 11.3 0.00 0.00 0.00 41 1013.8
20260505174537 19 217 1.6 6.4 0.00 0.00 0.00 41 1013.8
20260505174018 19 320 3.2 9.7 0.00 0.00 0.00 42 1013.8
20260505173518 18 293 3.2 8.0 0.00 0.00 0.00 43 1013.7
20260505173018 18 349 3.2 4.8 0.00 0.00 0.00 43 1013.8
20260505172518 18 103 1.6 6.4 0.00 0.00 0.00 43 1013.8
20260505172018 17 7 1.6 8.0 0.00 0.00 0.00 44 1013.7
20260505171518 17 295 3.2 6.4 0.00 0.00 0.00 45 1013.7
20260505171018 17 277 4.8 11.3 0.00 0.00 0.00 46 1013.7
20260505170518 17 271 4.8 11.3 0.00 0.00 0.00 45 1013.8
20260505170018 17 290 3.2 9.7 0.00 0.00 0.00 45 1013.8
20260505165519 17 284 3.2 9.7 0.00 0.00 0.00 45 1013.8
20260505165019 16 316 3.2 4.8 0.00 0.00 0.00 47 1013.8
20260505164519 16 269 4.8 9.7 0.00 0.00 0.00 48 1013.8
20260505164019 16 292 3.2 6.4 0.00 0.00 0.00 48 1013.9
20260505163700 16 274 3.2 8.0 0.00 0.00 0.00 48 1013.8
20260505163019 15 304 3.2 11.3 0.00 0.00 0.00 48 1013.8
20260505162519 15 268 3.2 9.7 0.00 0.00 0.00 50 1013.8
20260505162016 15 259 1.6 8.0 0.00 0.00 0.00 51 1013.8
20260505161516 15 286 3.2 6.4 0.00 0.00 0.00 52 1013.8
20260505161019 15 277 1.6 6.4 0.00 0.00 0.00 52 1013.7
20260505160519 14 271 1.6 9.7 0.00 0.00 0.00 54 1013.8
20260505153016 11 188 1.6 6.4 0.00 0.00 0.00 64 1013.7
20260505152519 11 193 1.6 3.2 0.00 0.00 0.00 65 1013.7
20260505152017 11 207 0.0 1.6 0.00 0.00 0.00 65 1013.7
20260505151517 11 235 1.6 4.8 0.00 0.00 0.00 64 1013.6
20260505151016 11 231 1.6 4.8 0.00 0.00 0.00 63 1013.6
20260505150517 11 238 1.6 4.8 0.00 0.00 0.00 62 1013.6
20260505140518 9 140 4.8 9.7 0.00 0.00 0.00 65 1012.8